Cheraw, SC

1:54 AM EST on January 23, 2018 (GMT -0500)
Cheraw

Weather History for KCQW - January, 2012

Change the Weather History Date:

Saturday, January 14, 2012

  Actual Average (KFLO) Record (KFLO)
Temperature  
Mean Temperature 35 °F -  
Max Temperature 46 °F 51 °F 79 °F (2013)
Min Temperature 24 °F 31 °F 16 °F (2011)
Degree Days  
Heating Degree Days 30    
Moisture  
Dew Point 20 °F    
Average Humidity 58    
Maximum Humidity 86    
Minimum Humidity 29    
Precipitation  
Precipitation 0.00 in - - ()
Sea Level Pressure  
Sea Level Pressure 30.18 in    
Wind  
Wind Speed 5 mph (WSW)    
Max Wind Speed 12 mph    
Max Gust Speed 17 mph    
Visibility 10 miles    
Events      
Averages and records for this station are not official NWS values.
T = Trace of Precipitation, MM = Missing Value Source: NWS Daily Summary

Daily Weather History Graph

Daily Weather History Graph

Search for Another Location

Airport or City:

Trip Planner

Search our weather history database for the weather conditions in past years. The results will help you decide how hot, cold, wet, or windy it might be!

Date:

Astronomy

Jan. 14, 2012 Rise Set
Actual Time 7:27 AM EST 5:30 PM EST
Civil Twilight 6:59 AM EST 5:58 PM EST
Nautical Twilight 6:28 AM EST 6:29 PM EST
Astronomical Twilight 5:58 AM EST 6:59 PM EST
Moon 11:31 PM EST (1/14) 10:28 AM EST (1/14)
Length of Visible Light 10h 58m
Length of Day
10h 03m
Waning Gibbous, 69% of the Moon is Illuminated
Jan 14
Waning Gibbous
Jan 16
Last Quarter
Jan 23
New
Jan 30
First Quarter
Feb 7
Full

Hourly Weather History & Observations

Time (EST) Temp. Windchill Dew Point Humidity Pressure Visibility Wind Dir Wind Speed Gust Speed Precip Events Conditions
12:15 AM 33.8 °F 30.8 °F 19.4 °F 56% 30.11 in 10.0 mi WSW 3.5 mph - N/A   Clear
12:35 AM 32.0 °F 27.5 °F 19.4 °F 60% 30.12 in 10.0 mi WSW 4.6 mph - N/A   Clear
12:55 AM 32.0 °F 28.7 °F 19.4 °F 60% 30.13 in 10.0 mi WSW 3.5 mph - N/A   Clear
1:15 AM 32.0 °F 28.7 °F 19.4 °F 60% 30.13 in 10.0 mi SW 3.5 mph - N/A   Clear
1:35 AM 32.0 °F 28.7 °F 21.2 °F 64% 30.14 in 10.0 mi WSW 3.5 mph - N/A   Clear
1:55 AM 30.2 °F 26.7 °F 21.2 °F 69% 30.14 in 10.0 mi WSW 3.5 mph - N/A   Clear
2:15 AM 30.2 °F - 21.2 °F 69% 30.14 in 10.0 mi Calm Calm - N/A   Clear
2:35 AM 30.2 °F 26.7 °F 21.2 °F 69% 30.15 in 10.0 mi WSW 3.5 mph - N/A   Clear
2:55 AM 28.4 °F - 21.2 °F 74% 30.15 in 10.0 mi Calm Calm - N/A   Clear
3:15 AM 28.4 °F 24.6 °F 21.2 °F 74% 30.16 in 10.0 mi West 3.5 mph - N/A   Clear
3:35 AM 28.4 °F 23.3 °F 21.2 °F 74% 30.15 in 10.0 mi WSW 4.6 mph - N/A   Clear
3:55 AM 28.4 °F 23.3 °F 21.2 °F 74% 30.16 in 10.0 mi WSW 4.6 mph - N/A   Clear
4:15 AM 28.4 °F 23.3 °F 21.2 °F 74% 30.16 in 10.0 mi WSW 4.6 mph - N/A   Clear
4:35 AM 28.4 °F 22.2 °F 21.2 °F 74% 30.16 in 10.0 mi West 5.8 mph - N/A   Clear
4:55 AM 26.6 °F 20.0 °F 21.2 °F 80% 30.17 in 10.0 mi WSW 5.8 mph - N/A   Clear
5:15 AM 26.6 °F 20.0 °F 21.2 °F 80% 30.18 in 10.0 mi WSW 5.8 mph - N/A   Clear
5:35 AM 26.6 °F 20.0 °F 21.2 °F 80% 30.18 in 10.0 mi WSW 5.8 mph - N/A   Clear
5:55 AM 26.6 °F 19.1 °F 21.2 °F 80% 30.18 in 10.0 mi WSW 6.9 mph - N/A   Clear
6:15 AM 26.6 °F 21.2 °F 21.2 °F 80% 30.20 in 10.0 mi WSW 4.6 mph - N/A   Clear
6:35 AM 26.6 °F 20.0 °F 21.2 °F 80% 30.20 in 10.0 mi WSW 5.8 mph - N/A   Clear
6:55 AM 24.8 °F 17.9 °F 21.2 °F 86% 30.20 in 10.0 mi WSW 5.8 mph - N/A   Clear
7:15 AM 26.6 °F 19.1 °F 21.2 °F 80% 30.21 in 10.0 mi WSW 6.9 mph - N/A   Clear
7:35 AM 26.6 °F 20.0 °F 21.2 °F 80% 30.23 in 10.0 mi WSW 5.8 mph - N/A   Clear
7:55 AM 26.6 °F 20.0 °F 21.2 °F 80% 30.23 in 10.0 mi West 5.8 mph - N/A   Clear
8:15 AM 28.4 °F 21.2 °F 23.0 °F 80% 30.24 in 10.0 mi WSW 6.9 mph - N/A   Clear
8:35 AM 28.4 °F 21.2 °F 23.0 °F 80% 30.25 in 10.0 mi WSW 6.9 mph - N/A   Clear
8:55 AM 30.2 °F 23.4 °F 23.0 °F 75% 30.26 in 10.0 mi West 6.9 mph - N/A   Clear
9:15 AM 32.0 °F 26.4 °F 23.0 °F 69% 30.26 in 10.0 mi West 5.8 mph - N/A   Clear
9:35 AM 32.0 °F 27.5 °F 23.0 °F 69% 30.27 in 10.0 mi West 4.6 mph - N/A   Clear
9:55 AM 33.8 °F 30.8 °F 23.0 °F 65% 30.26 in 10.0 mi WSW 3.5 mph - N/A   Clear
10:15 AM 35.6 °F - 23.0 °F 60% 30.27 in 10.0 mi Calm Calm - N/A   Clear
10:35 AM 37.4 °F 32.8 °F 21.2 °F 52% 30.27 in 10.0 mi SSW 5.8 mph - N/A   Clear
10:55 AM 37.4 °F 32.1 °F 19.4 °F 48% 30.26 in 10.0 mi SW 6.9 mph - N/A   Clear
11:15 AM 39.2 °F 34.2 °F 19.4 °F 45% 30.25 in 10.0 mi SSW 6.9 mph - N/A   Clear
11:35 AM 39.2 °F 33.6 °F 19.4 °F 45% 30.24 in 10.0 mi SSW 8.1 mph - N/A   Clear
11:55 AM 39.2 °F - 17.6 °F 42% 30.21 in 10.0 mi Calm Calm - N/A   Clear
12:35 PM 42.8 °F 38.0 °F 17.6 °F 36% 30.20 in 10.0 mi WSW 8.1 mph - N/A   Clear
12:55 PM 42.8 °F 37.5 °F 17.6 °F 36% 30.19 in 10.0 mi WNW 9.2 mph - N/A   Clear
1:15 PM 42.8 °F 38.0 °F 17.6 °F 36% 30.18 in 10.0 mi WSW 8.1 mph - N/A   Clear
1:35 PM 44.6 °F 40.7 °F 17.6 °F 34% 30.17 in 10.0 mi SW 6.9 mph - N/A   Clear
1:55 PM 44.6 °F 40.2 °F 17.6 °F 34% 30.15 in 10.0 mi SSW 8.1 mph - N/A   Clear
2:15 PM 44.6 °F 39.7 °F 15.8 °F 31% 30.14 in 10.0 mi SW 9.2 mph - N/A   Clear
2:35 PM 46.4 °F 42.4 °F 17.6 °F 32% 30.14 in 10.0 mi SW 8.1 mph - N/A   Clear
2:55 PM 46.4 °F 43.5 °F 17.6 °F 32% 30.15 in 10.0 mi SW 5.8 mph - N/A   Clear
3:15 PM 46.4 °F 42.4 °F 17.6 °F 32% 30.15 in 10.0 mi WSW 8.1 mph - N/A   Clear
3:35 PM 46.4 °F 41.5 °F 17.6 °F 32% 30.15 in 10.0 mi WSW 10.4 mph - N/A   Clear
3:55 PM 46.4 °F 42.9 °F 17.6 °F 32% 30.15 in 10.0 mi West 6.9 mph - N/A   Clear
4:15 PM 46.4 °F 41.5 °F 15.8 °F 29% 30.17 in 10.0 mi WSW 10.4 mph 17.3 mph N/A   Clear
4:35 PM 44.6 °F 38.8 °F 15.8 °F 31% 30.17 in 10.0 mi WSW 11.5 mph - N/A   Clear
4:55 PM 44.6 °F 42.2 °F 17.6 °F 34% 30.17 in 10.0 mi WSW 4.6 mph - N/A   Clear
5:15 PM 42.8 °F 40.1 °F 17.6 °F 36% 30.17 in 10.0 mi WSW 4.6 mph - N/A   Clear
5:35 PM 41.0 °F 38.0 °F 19.4 °F 42% 30.17 in 10.0 mi SW 4.6 mph - N/A   Clear
5:55 PM 39.2 °F - 19.4 °F 45% 30.17 in 10.0 mi Calm Calm - N/A   Clear
6:15 PM 37.4 °F - 21.2 °F 52% 30.18 in 10.0 mi Calm Calm - N/A   Clear
6:35 PM 35.6 °F 31.7 °F 21.2 °F 56% 30.18 in 10.0 mi SSW 4.6 mph - N/A   Clear
6:55 PM 33.8 °F 29.6 °F 21.2 °F 60% 30.18 in 10.0 mi South 4.6 mph - N/A   Clear
7:15 PM 35.6 °F 32.8 °F 21.2 °F 56% 30.17 in 10.0 mi South 3.5 mph - N/A   Clear
7:35 PM 33.8 °F 29.6 °F 23.0 °F 65% 30.18 in 10.0 mi South 4.6 mph - N/A   Clear
7:55 PM 33.8 °F 29.6 °F 23.0 °F 65% 30.18 in 10.0 mi South 4.6 mph - N/A   Clear
8:15 PM 33.8 °F 28.6 °F 21.2 °F 60% 30.18 in 10.0 mi South 5.8 mph - N/A   Clear
8:35 PM 33.8 °F 28.6 °F 21.2 °F 60% 30.18 in 10.0 mi South 5.8 mph - N/A   Clear
8:55 PM 35.6 °F 31.7 °F 19.4 °F 52% 30.19 in 10.0 mi SSW 4.6 mph - N/A   Clear
9:15 PM 33.8 °F 29.6 °F 21.2 °F 60% 30.20 in 10.0 mi South 4.6 mph - N/A   Clear
9:35 PM 32.0 °F - 21.2 °F 64% 30.20 in 10.0 mi Calm Calm - N/A   Clear
9:55 PM 32.0 °F 28.7 °F 23.0 °F 69% 30.20 in 10.0 mi South 3.5 mph - N/A   Clear
10:15 PM 32.0 °F 26.4 °F 23.0 °F 69% 30.19 in 10.0 mi South 5.8 mph - N/A   Clear
10:55 PM 33.8 °F 30.8 °F 21.2 °F 60% 30.19 in 10.0 mi South 3.5 mph - N/A   Clear
11:15 PM 32.0 °F 27.5 °F 21.2 °F 64% 30.18 in 10.0 mi South 4.6 mph - N/A   Clear
11:35 PM 32.0 °F 27.5 °F 21.2 °F 64% 30.17 in 10.0 mi South 4.6 mph - N/A   Clear
11:55 PM 33.8 °F - 21.2 °F 60% 30.16 in 10.0 mi Calm Calm - N/A   Clear